Ft Lauderdale, FL

12:31 PM EDT on October 23, 2019 (GMT -0400)
Fort Lauderdale-Hollywood International

Weather History for KFLL - September, 2019

Change the Weather History Date:

Sunday, September 15, 2019

  Actual Average Record
Temperature  
Mean Temperature 86 °F 83 °F  
Max Temperature 94 °F 89 °F 95 °F (1933)
Min Temperature 78 °F 78 °F 68 °F (1976)
Degree Days  
Heating Degree Days 0 0  
Month to date heating degree days 0 0  
Since 1 July heating degree days 0 0  
Cooling Degree Days 21 18  
Month to date cooling degree days 301 276  
Year to date cooling degree days 3688 3442  
Growing Degree Days 36 (Base 50)    
Moisture  
Dew Point 75 °F    
Average Humidity 75    
Maximum Humidity 97    
Minimum Humidity 52    
Precipitation  
Precipitation 0.02 in 0.31 in 2.41 in (1994)
Month to date precipitation 1.23 4.23  
Year to date precipitation 41.87 45.30  
Snow  
Snow 0.00 in - - ()
Month to date snowfall 0.0  
Since 1 July snowfall 0.0  
Since 1 September snowfall 0.0  
Snow Depth 0.00 in    
Sea Level Pressure  
Sea Level Pressure 29.90 in    
Wind  
Wind Speed 8 mph (West)    
Max Wind Speed 21 mph    
Max Gust Speed 25 mph    
Visibility 10 miles    
Events Rain    
T = Trace of Precipitation, MM = Missing Value Source: NWS Daily Summary

Daily Weather History Graph

Daily Weather History Graph

Search for Another Location

Airport or City:

Astronomy

Sep. 15, 2019 Rise Set
Actual Time 7:06 AM EDT 7:25 PM EDT
Civil Twilight 6:43 AM EDT 7:48 PM EDT
Nautical Twilight 6:16 AM EDT 8:15 PM EDT
Astronomical Twilight 5:48 AM EDT 8:42 PM EDT
Moon 8:37 PM EDT (9/15) 8:12 AM EDT (9/15)
Length of Visible Light 13h 04m
Length of Day
12h 18m
Full, 98% of the Moon is Illuminated
Sep 15
Full
Sep 21
Last Quarter
Sep 28
New
Oct 5
First Quarter
Oct 13
Full

Hourly Weather History & Observations

Time (EDT) Temp. Heat Index Dew Point Humidity Pressure Visibility Wind Dir Wind Speed Gust Speed Precip Events Conditions
12:53 AM 80.1 °F 85.1 °F 75.0 °F 85% 29.91 in 10.0 mi NW 5.8 mph - N/A   Mostly Cloudy
1:53 AM 79.0 °F - 75.0 °F 88% 29.91 in 10.0 mi West 5.8 mph - N/A   Mostly Cloudy
2:53 AM 79.0 °F - 75.9 °F 90% 29.89 in 10.0 mi West 4.6 mph - N/A   Mostly Cloudy
3:53 AM 79.0 °F - 75.9 °F 90% 29.89 in 10.0 mi West 5.8 mph - N/A   Scattered Clouds
4:53 AM 79.0 °F - 75.9 °F 90% 29.89 in 10.0 mi West 5.8 mph - N/A   Scattered Clouds
5:53 AM 78.1 °F - 75.9 °F 93% 29.90 in 10.0 mi West 5.8 mph - N/A   Mostly Cloudy
6:53 AM 78.1 °F - 77.0 °F 96% 29.90 in 10.0 mi West 5.8 mph - N/A   Scattered Clouds
7:53 AM 79.0 °F - 77.0 °F 94% 29.92 in 10.0 mi West 8.1 mph - N/A   Scattered Clouds
8:18 AM 79.0 °F - 77.0 °F 94% 29.92 in 10.0 mi WNW 5.8 mph - N/A   Scattered Clouds
8:53 AM 81.0 °F 87.9 °F 77.0 °F 88% 29.93 in 10.0 mi West 6.9 mph - N/A   Scattered Clouds
9:53 AM 84.0 °F 92.6 °F 75.9 °F 76% 29.94 in 10.0 mi Variable 5.8 mph - N/A   Scattered Clouds
10:53 AM 87.1 °F 95.4 °F 73.9 °F 65% 29.93 in 10.0 mi WNW 6.9 mph - N/A   Scattered Clouds
11:53 AM 87.1 °F 95.4 °F 73.9 °F 65% 29.93 in 10.0 mi West 10.4 mph - N/A   Mostly Cloudy
12:53 PM 90.0 °F 100.2 °F 75.0 °F 61% 29.92 in 10.0 mi WSW 12.7 mph - N/A   Mostly Cloudy
1:53 PM 91.0 °F 99.3 °F 73.0 °F 55% 29.90 in 10.0 mi West 15.0 mph - N/A   Mostly Cloudy
2:53 PM 93.0 °F 103.2 °F 73.9 °F 54% 29.88 in 10.0 mi West 13.8 mph 21.9 mph N/A   Mostly Cloudy
3:53 PM 93.0 °F 101.9 °F 73.0 °F 52% 29.87 in 10.0 mi WNW 8.1 mph 19.6 mph N/A   Scattered Clouds
4:53 PM 84.0 °F 92.6 °F 75.9 °F 76% 29.87 in 8.0 mi WSW 13.8 mph 21.9 mph 0.02 in Rain Rain
5:53 PM 84.9 °F 94.1 °F 75.9 °F 74% 29.87 in 10.0 mi West 8.1 mph - 0.00 in   Mostly Cloudy
6:53 PM 84.0 °F 91.2 °F 73.9 °F 72% 29.86 in 10.0 mi West 8.1 mph - N/A   Mostly Cloudy
7:53 PM 84.0 °F 91.2 °F 73.9 °F 72% 29.89 in 10.0 mi NW 6.9 mph - N/A   Mostly Cloudy
8:53 PM 84.0 °F 91.9 °F 75.0 °F 74% 29.91 in 10.0 mi West 8.1 mph - N/A   Scattered Clouds
9:53 PM 82.9 °F 88.8 °F 73.0 °F 72% 29.92 in 10.0 mi WNW 5.8 mph - N/A   Scattered Clouds
10:53 PM 82.4 °F 88.2 °F 73.4 °F 74% 29.92 in 10.0 mi West 6.9 mph - N/A   Mostly Cloudy
11:53 PM 81.0 °F 86.7 °F 75.0 °F 82% 29.92 in 10.0 mi West 6.9 mph - N/A   Scattered Clouds